Weather in Starchiki

Russia / Tambov Oblast     52°31′05″N   41°29′53″E
temp.,
°C
wind,
m/s
gust,
m/s
humid.,
%
clouds,
%
prec.,
mm/h
press.,
hPa
HPBL,
m
25 february, thu
thu2500:00−17s589693 0.3 1036325
03:00−15ssw5109596 0.6 1033392
06:00−13ssw51095100 0.4 1030409
09:00−11ssw61094100 1.4 1027427
12:00−7sw71295100 1.8 1023444
15:00−3sw71296100 3.6 1019428
18:00+1wsw61397100 1.3 1016402
21:00+2wnw51199100 1.5 1016352
26 february, fri
fri2600:00+2wnw51099100 0.0 1016266
03:00+1wnw3699100 0.0 1016179
06:00+1w4999100 0.0 1015242
09:00+1w51199100 0.3 1015287
12:00+2w512100100 0.1 1013310
15:00+2wsw61399100 0.1 1012389
18:00+2w61599100 0.4 1009404
21:00+2w71698100 0.6 1008475
27 february, sat
sat2700:00+2w61396100 0.0 1007498
03:00+1w61392100 0.0 1007487
06:00+1w61392100 0.0 1005476
09:00+1w71197100 0.1 1005627
12:00+1wnw51099100 0.1 1005526
15:00+1w61098100 0.3 1004550
18:000wnw61297100 0.1 1004554
21:000wnw71397100 0.2 1006685
28 february, sun
sun2800:00−5nnw5109098 0.2 1007523
03:00−7nnw489089 0.2 1010419
06:00−9nnw499070 0.0 1012439
09:00−9nnw588878 0.0 1013509
12:00−7nnw5786100 0.0 1015548
15:00−6nnw5886100 0.0 1016577
18:00−7nnw5889100 0.0 1017491
21:00−7n3893100 0.1 1020620
1 march, mon
mon100:00−8n369595 0.1 1022380
03:00−9nnw379590 0.1 1023240
06:00−10nnw489382 0.0 1025334
09:00−9n488979 0.0 1027470
12:00−7nnw478590 0.0 1028623
15:00−6nw478795 0.0 1028569
18:00−8nw349487 0.0 102888
21:00−8w349567 0.0 102891